Total_Precipitation_Accumulation
1.14 1.19 1.23 1.27 1.33 1.34 1.39 1.49 1.67 1.65 1.45 1.24 1.14 1.15 1.21 1.27 1.46 1.30 1.25 1.23 1.08 0.99 0.98 1.02 1.06 1.09 1.18 1.32 1.42 1.47 1.49 1.50 1.53 1.61 1.76 1.91 2.07 2.20
0.99 1.00 1.01 1.07 1.25 1.36 1.43 1.53 1.66 1.72 1.64 1.31 1.15 1.13 1.19 1.21 1.42 1.28 1.27 1.33 1.12 0.95 0.89 1.00 1.07 1.06 1.09 1.12 1.14 1.20 1.27 1.31 1.33 1.39 1.50 1.62 1.77 1.95
0.85 0.87 0.92 0.99 1.09 1.17 1.29 1.43 1.62 1.78 1.81 1.51 1.25 1.17 1.21 1.28 1.32 1.24 1.15 1.08 0.99 0.97 0.84 0.88 1.11 1.29 1.20 1.09 1.03 1.02 1.07 1.12 1.17 1.24 1.36 1.49 1.58 1.68
0.76 0.80 0.78 0.81 0.93 1.02 1.14 1.26 1.40 1.53 1.66 1.59 1.35 1.24 1.22 1.31 1.38 1.36 1.17 1.01 0.91 0.98 0.88 0.82 0.96 1.35 1.44 1.22 1.13 1.05 0.98 0.98 0.99 1.06 1.17 1.29 1.38 1.51
0.65 0.72 0.74 0.82 0.91 1.00 1.11 1.16 1.24 1.29 1.47 1.51 1.37 1.30 1.28 1.32 1.44 1.38 1.17 1.11 0.83 0.79 0.80 0.82 0.95 1.48 1.84 1.62 1.35 1.23 1.07 0.96 0.87 0.91 1.02 1.10 1.14 1.21
0.55 0.59 0.65 0.75 0.86 0.98 1.05 1.14 1.26 1.35 1.44 1.52 1.47 1.44 1.43 1.40 1.46 1.50 1.32 1.15 0.92 0.66 0.74 0.81 0.99 1.46 2.02 2.20 1.81 1.54 1.32 1.16 1.02 0.92 0.91 0.92 0.89 0.87
0.54 0.54 0.51 0.57 0.68 0.78 0.85 1.04 1.29 1.46 1.46 1.50 1.50 1.50 1.50 1.56 1.49 1.41 1.37 1.24 1.02 0.80 0.81 0.82 1.06 1.70 2.27 2.56 2.39 1.85 1.43 1.22 1.08 0.96 0.91 0.86 0.80 0.74
0.61 0.57 0.47 0.44 0.49 0.55 0.64 0.78 1.01 1.26 1.40 1.47 1.48 1.48 1.46 1.52 1.50 1.43 1.44 1.43 1.28 0.95 0.89 0.95 1.23 2.04 2.62 2.85 2.75 2.04 1.44 1.22 1.11 1.01 0.94 0.87 0.80 0.73
0.63 0.64 0.52 0.43 0.52 0.59 0.60 0.63 0.74 0.93 1.21 1.44 1.51 1.40 1.48 1.56 1.60 1.59 1.51 1.52 1.44 1.12 1.05 1.17 1.44 2.04 2.50 2.91 2.82 2.13 1.61 1.32 1.20 1.11 1.03 0.94 0.83 0.74
0.53 0.58 0.64 0.67 0.59 0.59 0.64 0.79 0.95 1.04 1.12 1.18 1.37 1.40 1.43 1.45 1.41 1.44 1.46 1.47 1.36 1.11 1.11 1.37 1.56 1.96 2.31 2.76 2.71 2.08 1.64 1.41 1.29 1.18 1.04 0.93 0.83 0.75
0.46 0.46 0.51 0.60 0.58 0.63 0.79 1.03 1.23 1.39 1.26 1.23 1.31 1.46 1.48 1.32 1.15 1.22 1.46 1.55 1.40 1.14 1.07 1.31 1.53 1.73 2.03 2.37 2.31 1.98 1.63 1.44 1.28 1.14 1.02 0.90 0.82 0.78
0.53 0.52 0.56 0.57 0.60 0.74 0.90 1.20 1.43 1.54 1.36 1.30 1.43 1.57 1.51 1.39 1.31 1.35 1.54 1.52 1.40 1.34 1.14 1.21 1.37 1.49 1.89 2.02 1.85 1.64 1.54 1.50 1.36 1.22 1.07 0.91 0.77 0.70
0.55 0.63 0.68 0.69 0.66 0.77 0.95 1.16 1.39 1.45 1.39 1.37 1.40 1.44 1.47 1.48 1.38 1.36 1.39 1.35 1.34 1.31 1.07 1.18 1.39 1.48 1.71 1.86 1.76 1.61 1.43 1.39 1.37 1.42 1.36 1.12 0.85 0.72
0.63 0.67 0.68 0.69 0.71 0.85 0.99 1.20 1.41 1.54 1.44 1.30 1.21 1.18 1.19 1.26 1.24 1.12 1.06 1.05 1.09 1.14 1.05 1.14 1.45 1.60 1.58 1.56 1.68 1.61 1.52 1.48 1.40 1.43 1.48 1.34 1.12 0.99
0.55 0.71 0.71 0.65 0.80 1.09 1.27 1.39 1.55 1.63 1.47 1.23 1.14 1.06 1.01 0.99 0.98 1.01 0.97 0.91 0.86 0.86 0.80 0.92 1.22 1.39 1.43 1.45 1.52 1.50 1.61 1.79 1.65 1.58 1.49 1.36 1.24 1.10
0.45 0.65 0.77 0.81 0.97 1.27 1.49 1.59 1.65 1.59 1.38 1.18 1.07 0.98 0.90 0.89 0.91 0.91 0.95 0.92 0.92 0.92 0.82 0.80 0.94 1.14 1.29 1.29 1.36 1.46 1.55 1.93 1.94 1.68 1.54 1.49 1.38 1.23
0.41 0.59 0.79 0.88 1.09 1.32 1.45 1.47 1.43 1.35 1.27 1.11 0.99 0.92 0.90 0.89 0.89 0.88 0.90 0.86 0.87 0.86 0.86 0.84 0.86 0.93 1.00 1.08 1.24 1.36 1.51 1.71 1.76 1.54 1.41 1.50 1.50 1.33
0.45 0.68 0.88 0.98 1.13 1.25 1.33 1.30 1.23 1.15 1.08 1.01 0.96 0.89 0.87 0.87 0.89 0.84 0.79 0.78 0.82 0.78 0.74 0.72 0.71 0.73 0.81 0.94 1.12 1.22 1.29 1.48 1.50 1.35 1.17 1.27 1.47 1.40
0.50 0.72 0.90 1.03 1.13 1.17 1.19 1.16 1.10 1.04 0.96 0.91 0.88 0.84 0.80 0.80 0.79 0.74 0.68 0.68 0.67 0.64 0.60 0.56 0.52 0.52 0.63 0.96 1.15 1.18 1.14 1.19 1.24 1.20 1.12 1.13 1.34 1.41
0.58 0.75 0.88 0.93 1.00 1.05 1.04 1.05 1.02 0.94 0.85 0.83 0.86 0.84 0.76 0.69 0.64 0.63 0.62 0.59 0.56 0.51 0.47 0.45 0.44 0.48 0.58 0.81 1.14 1.25 1.09 0.92 0.91 0.97 0.95 1.00 1.14 1.20
0.61 0.72 0.78 0.82 0.86 0.90 0.90 0.88 0.87 0.83 0.76 0.74 0.75 0.78 0.76 0.68 0.60 0.54 0.50 0.45 0.43 0.43 0.45 0.47 0.46 0.40 0.40 0.49 0.75 0.97 1.00 0.94 0.82 0.78 0.76 0.82 0.86 0.78
0.55 0.63 0.66 0.66 0.68 0.72 0.69 0.65 0.66 0.67 0.66 0.67 0.67 0.67 0.68 0.62 0.54 0.48 0.43 0.41 0.40 0.37 0.36 0.38 0.35 0.32 0.36 0.48 0.66 0.80 0.81 0.74 0.69 0.65 0.62 0.60 0.58 0.67
0.48 0.51 0.55 0.56 0.52 0.51 0.54 0.54 0.56 0.61 0.63 0.62 0.60 0.58 0.55 0.50 0.43 0.38 0.35 0.33 0.32 0.31 0.32 0.35 0.35 0.34 0.37 0.43 0.53 0.59 0.58 0.52 0.48 0.50 0.58 0.62 0.58 0.65